Location: Chomutov
(50.4500°N, 13.4333°E)
Time: 01:15:06
(UTC+02:00)

FO-29 - Pass Details

Date: 03 October 2021
Orbit: 800 x 1321 km, 98.6° (Epoch: 27 October)

Event Time Altitude Azimuth Distance (km) Brightness Sun altitude
Exits shadow 20:50:25 32° 128° (SE) 2,095 10.7 -21.3°
Maximum altitude 20:54:04 57° 66° (ENE) 1,533 10.2 -21.9°
Drops below altitude 10° 21:01:37 10° 351° (N) 3,305 12.6 -23.0°
Sets 21:04:18 0° 348° (NNW) 4,238 13.3 -23.4°
